CW1569 Weather Reports


Display with metric or nautical units.
time (UTC)temp
F
wind
direction
speed
MPH
gust
MPH
rain 1hr
in
rain 24hr
in
rain mn
in
humidity
%
barometer
mb
20260902194838 92 360 6.0 16.0 0.00 0.00 0.00 58 1010.1
20260902194329 92 360 9.0 15.0 0.00 0.00 0.00 56 1010.1
20260902193834 92 216 5.0 16.0 0.00 0.00 0.00 58 1010.1
20260902193323 91 360 8.0 16.0 0.00 0.00 0.00 58 1010.1
20260902192833 91 360 4.0 10.0 0.00 0.00 0.00 59 1010.3
20260902192323 91 360 8.0 11.0 0.00 0.00 0.00 60 1010.3
20260902191833 91 360 4.0 13.0 0.00 0.00 0.00 61 1010.4
20260902191324 91 360 8.0 13.0 0.00 0.00 0.00 61 1010.4
20260902190831 91 360 5.0 9.0 0.00 0.00 0.00 62 1010.5
20260902190340 91 208 6.0 11.0 0.00 0.00 0.00 61 1010.3
20260902185831 91 360 6.0 13.0 0.00 0.00 0.00 59 1010.3
20260902185339 91 360 8.0 16.0 0.00 0.00 0.00 60 1010.5
20260902184828 91 360 7.0 16.0 0.00 0.00 0.00 59 1010.5
20260902184404 91 180 7.0 12.0 0.00 0.00 0.00 60 1010.6
20260902183830 91 201 8.0 12.0 0.00 0.00 0.00 61 1010.5
20260902183337 91 186 5.0 16.0 0.00 0.00 0.00 60 1010.5
20260902182827 91 360 10.0 16.0 0.00 0.00 0.00 58 1010.6
20260902182336 91 360 8.0 13.0 0.00 0.00 0.00 60 1010.6
20260902181825 91 205 9.0 13.0 0.00 0.00 0.00 59 1010.7
20260902181402 90 199 4.0 13.0 0.00 0.00 0.00 61 1010.8
20260902180829 90 360 6.0 13.0 0.00 0.00 0.00 62 1010.7
20260902180338 90 360 8.0 12.0 0.00 0.00 0.00 61 1010.7
20260902175827 90 360 7.0 11.0 0.00 0.00 0.00 61 1010.8
20260902175402 90 360 6.0 10.0 0.00 0.00 0.00 63 1010.8
20260902174830 90 201 3.0 9.0 0.00 0.00 0.00 64 1010.7
20260902174340 90 360 3.0 8.0 0.00 0.00 0.00 64 1010.7
20260902173827 90 360 5.0 7.0 0.00 0.00 0.00 62 1010.8
20260902173336 90 360 3.0 9.0 0.00 0.00 0.00 63 1010.8
20260902172826 90 360 4.0 11.0 0.00 0.00 0.00 63 1010.8
20260902172335 90 360 6.0 11.0 0.00 0.00 0.00 62 1010.7
20260902171824 90 360 3.0 9.0 0.00 0.00 0.00 63 1010.8
20260902171335 90 360 4.0 11.0 0.00 0.00 0.00 64 1010.8
20260902170823 90 360 6.0 12.0 0.00 0.00 0.00 63 1010.9
20260902170355 89 360 5.0 12.0 0.00 0.00 0.00 63 1011.0
20260902165823 89 360 2.0 9.0 0.00 0.00 0.00 66 1010.9
20260902165332 89 360 5.0 8.0 0.00 0.00 0.00 64 1011.0
20260902164822 88 180 2.0 6.0 0.00 0.00 0.00 66 1011.0
20260902164334 88 360 2.0 8.0 0.00 0.00 0.00 66 1011.1
20260902163822 88 360 4.0 8.0 0.00 0.00 0.00 66 1011.2
20260902163331 88 360 2.0 6.0 0.00 0.00 0.00 69 1011.2
20260902162841 87 360 4.0 6.0 0.00 0.00 0.00 67 1011.1
20260902162330 87 360 4.0 7.0 0.00 0.00 0.00 67 1011.3
20260902161839 87 360 2.0 7.0 0.00 0.00 0.00 68 1011.2
20260902161328 86 202 1.0 8.0 0.00 0.00 0.00 69 1011.4
20260902160836 86 360 1.0 8.0 0.00 0.00 0.00 70 1011.4
20260902160325 86 206 1.0 7.0 0.00 0.00 0.00 69 1011.3
20260902155832 86 360 2.0 5.0 0.00 0.00 0.00 69 1011.4
20260902155341 85 360 2.0 7.0 0.00 0.00 0.00 71 1011.4
20260902154830 85 360 4.0 7.0 0.00 0.01 0.00 69 1011.3
20260902154340 85 360 3.0 6.0 0.00 0.01 0.00 69 1011.4
20260902153846 84 360 2.0 8.0 0.00 0.01 0.00 70 1011.6
20260902153336 84 360 3.0 8.0 0.00 0.01 0.00 71 1011.6
20260902152825 84 194 3.0 8.0 0.00 0.01 0.00 71 1011.5
20260902152334 84 360 3.0 9.0 0.00 0.01 0.00 70 1011.5
20260902151823 84 210 5.0 9.0 0.00 0.01 0.00 71 1011.5
20260902151355 84 360 3.0 6.0 0.00 0.01 0.00 72 1011.4
20260902150909 83 200 2.0 6.0 0.00 0.01 0.00 74 1011.5
20260902150356 83 360 2.0 6.0 0.00 0.01 0.00 74 1011.5
20260902145842 83 360 1.0 6.0 0.00 0.01 0.00 74 1011.4
20260902145349 82 360 3.0 6.0 0.00 0.01 0.00 76 1011.6
20260902144836 82 360 2.0 7.0 0.00 0.01 0.00 76 1011.9
20260902144326 81 207 2.0 7.0 0.00 0.01 0.00 77 1011.7
20260902143902 81 360 2.0 5.0 0.00 0.01 0.00 78 1011.9
20260902143328 80 223 1.0 5.0 0.00 0.01 0.00 78 1011.9
20260902142837 80 233 2.0 7.0 0.00 0.01 0.00 78 1011.9
20260902142327 80 207 3.0 8.0 0.00 0.01 0.00 79 1011.8
20260902141836 80 196 5.0 8.0 0.00 0.01 0.00 78 1011.8
20260902141345 80 360 5.0 7.0 0.00 0.01 0.00 79 1011.8
20260902140853 80 210 1.0 6.0 0.00 0.01 0.00 81 1011.9
20260902140342 79 360 2.0 6.0 0.00 0.01 0.00 81 1011.8
20260902135829 79 223 2.0 5.0 0.00 0.01 0.00 80 1011.9
20260902135340 80 225 2.0 5.0 0.00 0.01 0.00 79 1012.1
20260902134827 80 360 3.0 6.0 0.00 0.01 0.00 78 1012.1
20260902134340 80 223 2.0 6.0 0.00 0.01 0.00 78 1012.1
20260902133828 79 360 1.0 7.0 0.00 0.01 0.00 79 1012.3
20260902133337 79 261 3.0 7.0 0.00 0.01 0.00 79 1012.4
20260902132828 79 360 3.0 7.0 0.00 0.01 0.00 79 1012.2
20260902132337 78 360 2.0 6.0 0.00 0.01 0.00 81 1012.5
20260902131827 78 360 1.0 6.0 0.00 0.01 0.00 81 1012.2
20260902131342 78 360 2.0 7.0 0.00 0.01 0.00 81 1012.4
20260902130830 78 360 3.0 7.0 0.00 0.01 0.00 81 1012.7
20260902130338 78 360 2.0 6.0 0.00 0.01 0.00 80 1012.5
20260902125828 78 265 1.0 10.0 0.00 0.01 0.00 80 1012.4
20260902125334 78 360 4.0 10.0 0.00 0.01 0.00 80 1012.6
20260902124824 78 360 3.0 14.0 0.00 0.01 0.00 79 1012.2
20260902124341 78 19 7.0 14.0 0.00 0.01 0.00 80 1012.6
20260902123828 78 360 4.0 8.0 0.00 0.01 0.00 80 1011.8
20260902123337 78 210 2.0 7.0 0.00 0.01 0.00 80 1011.7
20260902122847 78 211 3.0 7.0 0.00 0.01 0.00 81 1011.7
20260902122356 77 360 3.0 7.0 0.00 0.01 0.00 82 1011.6
20260902121842 77 360 2.0 7.0 0.00 0.01 0.00 82 1011.6
20260902121453 77 360 2.0 6.0 0.00 0.01 0.00 82 1011.7
20260902120828 77 360 4.0 6.0 0.00 0.01 0.00 82 1011.6
20260902120336 77 360 2.0 5.0 0.00 0.01 0.00 82 1011.4
20260902115847 76 360 3.0 6.0 0.00 0.01 0.00 82 1011.6
20260902115334 76 360 3.0 6.0 0.00 0.01 0.00 82 1011.6
20260902114825 76 360 2.0 5.0 0.00 0.01 0.00 82 1011.4
20260902114332 76 211 2.0 5.0 0.00 0.01 0.00 82 1011.4
20260902113838 76 360 2.0 6.0 0.00 0.01 0.00 82 1011.4
20260902113327 77 211 2.0 6.0 0.00 0.01 0.00 82 1011.3
20260902112838 77 360 1.0 6.0 0.00 0.01 0.00 82 1011.3
20260902112328 77 360 1.0 7.0 0.00 0.01 0.00 82 1011.3
20260902111835 76 360 5.0 7.0 0.00 0.01 0.00 83 1011.3
20260902111326 76 215 2.0 5.0 0.00 0.01 0.00 83 1011.3
20260902110833 76 360 2.0 6.0 0.00 0.01 0.00 83 1011.2
20260902110343 76 360 3.0 6.0 0.00 0.01 0.00 84 1011.3
20260902105854 76 360 2.0 6.0 0.00 0.01 0.00 84 1011.3
20260902105322 76 213 3.0 7.0 0.00 0.01 0.00 84 1011.3
20260902104831 76 360 4.0 7.0 0.00 0.01 0.00 84 1011.4
20260902104323 76 360 4.0 7.0 0.00 0.01 0.00 84 1011.4
20260902103833 76 212 5.0 8.0 0.00 0.01 0.01 84 1011.3
20260902103322 76 360 5.0 8.0 0.00 0.01 0.01 84 1011.4
20260902102831 76 360 5.0 7.0 0.00 0.01 0.01 84 1011.4
20260902102341 77 360 5.0 8.0 0.00 0.01 0.01 84 1011.4
20260902101828 77 196 4.0 8.0 0.00 0.01 0.01 84 1011.4
20260902101339 77 360 4.0 6.0 0.00 0.01 0.01 84 1011.4
20260902100828 76 209 5.0 7.0 0.00 0.01 0.01 84 1011.4
20260902100338 76 360 4.0 7.0 0.00 0.01 0.01 85 1011.5
20260902095828 76 360 4.0 6.0 0.00 0.01 0.01 85 1011.5
20260902095339 76 360 4.0 6.0 0.00 0.01 0.01 85 1011.5
20260902094827 76 360 4.0 6.0 0.00 0.01 0.01 86 1011.5
20260902094358 76 211 3.0 5.0 0.00 0.01 0.01 86 1011.5
20260902093824 76 360 3.0 5.0 0.00 0.01 0.01 86 1011.6
20260902093335 76 360 3.0 4.0 0.00 0.01 0.01 86 1011.6
20260902092822 76 207 0.0 3.0 0.00 0.01 0.01 86 1011.5
20260902092332 76 360 1.0 4.0 0.00 0.01 0.01 85 1011.6
20260902091839 77 360 2.0 6.0 0.00 0.01 0.01 85 1011.6
20260902091330 77 207 3.0 6.0 0.00 0.01 0.01 85 1011.7
20260902090837 77 200 3.0 6.0 0.00 0.01 0.01 85 1011.6
20260902090328 77 207 2.0 5.0 0.00 0.01 0.01 85 1011.5
20260902085838 77 211 2.0 5.0 0.00 0.01 0.01 85 1011.5
20260902085330 77 209 2.0 4.0 0.00 0.01 0.01 85 1011.5
20260902084839 77 360 1.0 5.0 0.00 0.02 0.01 85 1011.5
20260902084328 77 360 4.0 6.0 0.00 0.02 0.01 85 1011.4
20260902083836 77 360 4.0 6.0 0.00 0.02 0.01 85 1011.3
20260902083326 77 360 4.0 6.0 0.00 0.02 0.01 85 1011.3
20260902082835 77 360 4.0 6.0 0.00 0.02 0.01 86 1011.3
20260902082345 77 203 4.0 6.0 0.00 0.02 0.01 86 1011.3
20260902081853 77 211 4.0 6.0 0.00 0.02 0.01 86 1011.2
20260902081343 77 211 4.0 5.0 0.00 0.02 0.01 86 1011.2
20260902080831 77 360 4.0 5.0 0.00 0.02 0.01 87 1011.3
20260902080322 77 360 3.0 4.0 0.00 0.02 0.01 86 1011.4
20260902075830 77 213 0.0 3.0 0.00 0.02 0.01 86 1011.4
20260902075338 77 360 2.0 3.0 0.00 0.02 0.01 86 1011.4
20260902074828 77 211 1.0 3.0 0.00 0.02 0.01 85 1011.3
20260902074339 78 213 1.0 5.0 0.00 0.02 0.01 85 1011.3
20260902073827 78 213 1.0 5.0 0.00 0.02 0.01 85 1011.3
20260902073404 78 212 2.0 5.0 0.00 0.02 0.01 85 1011.3
20260902072853 78 201 3.0 5.0 0.00 0.02 0.01 85 1011.3
20260902072322 78 211 2.0 6.0 0.00 0.02 0.01 85 1011.2
20260902071833 78 211 2.0 6.0 0.00 0.02 0.01 85 1011.3
20260902071342 78 207 3.0 5.0 0.00 0.02 0.01 85 1011.3
20260902070824 78 360 4.0 5.0 0.00 0.02 0.01 85 1011.2
20260902070334 78 209 3.0 5.0 0.00 0.02 0.01 85 1011.2
20260902065823 78 207 2.0 4.0 0.00 0.02 0.01 85 1011.1
20260902065335 78 209 2.0 4.0 0.00 0.02 0.01 85 1011.1
20260902064825 78 209 2.0 4.0 0.00 0.02 0.01 85 1011.1
20260902064336 78 209 2.0 5.0 0.00 0.02 0.01 85 1011.2
20260902063844 78 208 3.0 5.0 0.00 0.02 0.01 85 1011.3
20260902063352 78 208 3.0 5.0 0.00 0.02 0.01 85 1011.4
20260902062835 79 199 2.0 6.0 0.00 0.02 0.01 84 1011.4
20260902062325 79 205 4.0 6.0 0.00 0.02 0.01 85 1011.5
20260902061834 78 360 4.0 5.0 0.00 0.02 0.01 85 1011.4
20260902061346 79 210 3.0 6.0 0.00 0.02 0.01 85 1011.4
20260902060856 79 360 4.0 6.0 0.00 0.02 0.01 85 1011.4
20260902060326 79 212 4.0 6.0 0.00 0.02 0.01 85 1011.3
20260902055836 79 360 3.0 5.0 0.00 0.02 0.01 85 1011.3
20260902055327 79 360 3.0 7.0 0.00 0.02 0.01 85 1011.3
20260902054836 79 210 3.0 7.0 0.00 0.02 0.01 85 1011.2
20260902054327 79 211 3.0 4.0 0.00 0.02 0.01 85 1011.1
20260902053901 79 211 2.0 4.0 0.00 0.02 0.01 84 1011.1
20260902053331 79 360 2.0 5.0 0.00 0.02 0.01 84 1011.1
20260902052821 79 360 3.0 5.0 0.00 0.02 0.01 84 1011.2
20260902052333 79 211 2.0 4.0 0.00 0.02 0.01 84 1011.2
20260902051823 79 211 3.0 4.0 0.00 0.02 0.01 84 1011.3
20260902051334 79 360 2.0 5.0 0.00 0.02 0.01 84 1011.2
20260902050829 80 360 2.0 5.0 0.00 0.02 0.01 84 1011.2
20260902050408 80 360 2.0 5.0 0.00 0.02 0.01 84 1011.2
20260902045829 80 212 3.0 5.0 0.00 0.02 0.01 83 1011.2
20260902045401 80 205 4.0 6.0 0.00 0.02 0.01 83 1011.3
20260902044830 80 209 2.0 6.0 0.00 0.02 0.01 83 1011.3
20260902044341 80 360 4.0 7.0 0.00 0.02 0.01 83 1011.3
20260902043830 80 211 4.0 7.0 0.00 0.02 0.01 84 1011.2
20260902043339 80 206 4.0 7.0 0.00 0.02 0.01 84 1011.1
20260902042829 80 211 3.0 7.0 0.00 0.02 0.01 84 1011.1
20260902042338 80 360 4.0 7.0 0.00 0.02 0.01 84 1011.1
20260902041848 80 360 3.0 4.0 0.00 0.02 0.01 84 1011.1
20260902041337 80 360 2.0 3.0 0.00 0.02 0.01 84 1011.0
20260902040843 80 360 0.0 3.0 0.00 0.02 0.01 84 1011.1
20260902040352 80 211 0.0 3.0 0.00 0.02 0.01 84 1011.2
20260902035821 80 360 0.0 4.0 0.00 0.02 0.01 84 1011.1
20260902035331 80 209 1.0 4.0 0.00 0.02 0.01 84 1011.1
20260902034821 81 360 2.0 4.0 0.00 0.02 0.01 84 1011.2
20260902034332 81 210 1.0 4.0 0.00 0.02 0.01 84 1011.3
20260902033840 81 360 2.0 4.0 0.00 0.02 0.01 84 1011.1
20260902033331 81 360 2.0 4.0 0.00 0.02 0.01 84 1011.2
20260902032821 81 360 2.0 5.0 0.00 0.02 0.01 84 1011.1
20260902032331 81 360 2.0 5.0 0.00 0.02 0.01 84 1011.1
20260902031822 81 360 2.0 5.0 0.00 0.02 0.01 83 1011.3
20260902031329 81 209 3.0 5.0 0.00 0.02 0.01 83 1011.4
20260902030836 81 207 1.0 4.0 0.00 0.02 0.01 83 1011.5
20260902030325 82 208 2.0 6.0 0.00 0.02 0.01 83 1011.5
20260902025835 82 211 2.0 6.0 0.00 0.02 0.01 83 1011.5
20260902025346 82 360 3.0 5.0 0.00 0.02 0.01 83 1011.5
20260902024855 82 360 3.0 6.0 0.00 0.03 0.01 83 1011.4
20260902024325 82 360 4.0 6.0 0.00 0.03 0.01 83 1011.4
20260902023900 82 211 2.0 5.0 0.00 0.03 0.01 83 1011.3
20260902023330 82 360 2.0 4.0 0.00 0.03 0.01 83 1011.3
20260902022906 82 209 1.0 5.0 0.00 0.03 0.01 83 1011.3
20260902022355 82 209 3.0 5.0 0.00 0.03 0.01 83 1011.3
20260902021824 82 208 1.0 5.0 0.00 0.03 0.01 82 1011.3
20260902021335 83 360 2.0 5.0 0.00 0.03 0.01 82 1011.3
20260902020842 83 360 3.0 5.0 0.00 0.03 0.01 81 1011.3
20260902020331 83 360 3.0 5.0 0.00 0.03 0.01 81 1011.3
20260902015837 83 360 2.0 5.0 0.00 0.03 0.01 82 1011.3
20260902015346 83 209 2.0 6.0 0.00 0.03 0.01 82 1011.2
20260902014834 83 360 4.0 6.0 0.00 0.03 0.01 82 1011.2
20260902014325 83 360 3.0 6.0 0.00 0.03 0.01 82 1011.1
20260902013833 83 207 2.0 5.0 0.00 0.03 0.01 82 1011.1
20260902013322 84 209 3.0 5.0 0.00 0.03 0.01 81 1010.9
20260902012832 84 202 2.0 5.0 0.00 0.03 0.01 81 1010.9
20260902012321 84 360 4.0 5.0 0.00 0.03 0.01 80 1010.8
20260902011832 84 360 3.0 5.0 0.00 0.03 0.01 80 1010.8
20260902011324 84 360 2.0 5.0 0.00 0.03 0.01 80 1010.6
20260902010832 84 360 2.0 5.0 0.00 0.03 0.01 80 1010.5
20260902010322 84 360 3.0 5.0 0.00 0.03 0.01 80 1010.4
20260902005859 84 360 2.0 5.0 0.00 0.03 0.01 80 1010.4
20260902005346 85 360 2.0 4.0 0.00 0.03 0.01 80 1010.3
20260902004835 85 360 2.0 4.0 0.00 0.03 0.01 79 1010.3
20260902004345 85 360 1.0 4.0 0.00 0.03 0.01 79 1010.3
20260902003833 85 360 2.0 4.0 0.00 0.03 0.01 79 1010.4
20260902003325 86 360 2.0 5.0 0.00 0.03 0.01 78 1010.3
20260902002831 86 360 1.0 5.0 0.00 0.03 0.01 78 1010.3
20260902002340 86 185 2.0 4.0 0.00 0.03 0.01 78 1010.3
20260902001828 86 190 0.0 5.0 0.00 0.03 0.01 77 1010.4
20260902001340 87 360 1.0 5.0 0.00 0.03 0.01 76 1010.4
20260902000829 87 180 1.0 4.0 0.00 0.03 0.01 76 1010.4
20260902000338 87 360 2.0 5.0 0.00 0.03 0.01 75 1010.3
20260901235828 87 360 3.0 5.0 0.00 0.03 0.01 75 1010.3
20260901235339 88 360 3.0 5.0 0.00 0.03 0.01 75 1010.4
20260901234829 88 360 3.0 5.0 0.00 0.04 0.01 75 1010.4
20260901234340 88 360 3.0 5.0 0.00 0.04 0.01 74 1010.5
20260901233828 89 360 3.0 6.0 0.00 0.04 0.01 73 1010.4
20260901233337 89 360 3.0 7.0 0.00 0.04 0.01 73 1010.4
20260901232846 89 360 2.0 7.0 0.00 0.04 0.01 73 1010.5
20260901232354 90 360 3.0 5.0 0.00 0.04 0.01 73 1010.6
20260901231825 90 360 3.0 7.0 0.00 0.04 0.01 72 1010.6
20260901231336 90 360 4.0 8.0 0.00 0.04 0.01 72 1010.6
20260901230844 90 360 3.0 8.0 0.00 0.04 0.01 72 1010.5
20260901230332 91 360 1.0 7.0 0.00 0.04 0.01 72 1010.6
20260901225822 91 360 2.0 6.0 0.00 0.04 0.01 72 1010.7
20260901225331 91 360 2.0 6.0 0.00 0.04 0.01 71 1010.7
20260901224836 91 178 4.0 6.0 0.00 0.05 0.01 71 1010.7
20260901224327 92 186 2.0 7.0 0.00 0.05 0.01 72 1010.7
20260901223834 92 360 2.0 9.0 0.00 0.05 0.01 72 1010.6
20260901223324 92 360 2.0 5.0 0.00 0.05 0.01 71 1010.6
20260901222834 92 360 2.0 5.0 0.00 0.05 0.01 71 1010.7
20260901222323 92 207 1.0 6.0 0.00 0.05 0.01 70 1010.8
20260901221832 91 207 1.0 8.0 0.00 0.05 0.01 68 1010.8
20260901221343 92 206 5.0 8.0 0.00 0.05 0.01 65 1010.8
20260901220829 92 360 4.0 7.0 0.00 0.05 0.01 66 1010.8
20260901220339 92 360 2.0 7.0 0.00 0.05 0.01 65 1010.8
20260901215828 93 205 2.0 6.0 0.00 0.05 0.01 65 1010.7
20260901215338 93 360 4.0 6.0 0.00 0.05 0.01 65 1010.6
20260901214828 93 206 3.0 6.0 0.00 0.06 0.01 65 1010.7
20260901214339 93 360 2.0 8.0 0.00 0.06 0.01 63 1010.7
20260901213826 93 360 4.0 8.0 0.00 0.06 0.01 63 1010.8
20260901213335 93 360 3.0 5.0 0.00 0.06 0.01 64 1010.8
20260901212823 93 360 2.0 5.0 0.00 0.06 0.01 63 1010.8
20260901212334 93 360 1.0 7.0 0.00 0.06 0.01 61 1010.8
20260901211822 93 360 2.0 7.0 0.00 0.06 0.01 63 1010.8
20260901211335 93 360 4.0 7.0 0.00 0.06 0.01 62 1010.9
20260901210824 93 205 3.0 6.0 0.00 0.06 0.01 62 1010.8
20260901210331 93 360 2.0 7.0 0.00 0.06 0.01 63 1010.8
20260901205837 93 360 3.0 8.0 0.00 0.06 0.01 61 1010.8
20260901205322 92 360 3.0 8.0 0.00 0.06 0.01 61 1010.9
20260901204830 92 360 5.0 10.0 0.00 0.06 0.01 62 1010.9
20260901204342 92 206 7.0 10.0 0.00 0.06 0.01 61 1011.0
20260901203850 93 360 3.0 9.0 0.00 0.06 0.01 62 1011.0
20260901203337 93 229 5.0 11.0 0.00 0.06 0.01 60 1011.0
20260901202827 93 360 2.0 11.0 0.00 0.06 0.01 60 1011.0
20260901202337 93 360 5.0 9.0 0.00 0.06 0.01 59 1011.0
20260901201825 93 5 2.0 7.0 0.00 0.06 0.01 61 1011.0
20260901201337 93 360 3.0 8.0 0.00 0.06 0.01 62 1011.1
20260901200825 93 259 3.0 8.0 0.00 0.06 0.01 64 1011.1
20260901200336 93 360 3.0 7.0 0.00 0.06 0.01 63 1011.1
20260901195826 92 360 3.0 8.0 0.00 0.06 0.01 63 1011.2
20260901195334 92 360 0.0 10.0 0.00 0.06 0.01 65 1011.3